Crossville, TN

6:21 PM CDT on April 26, 2018 (GMT -0500)
Crossville Memorial-Whitson

Weather History for KCSV - August, 2013

Change the Weather History Date:

Friday, August 2, 2013

  Actual Average Record
Temperature  
Mean Temperature 71 °F 75 °F  
Max Temperature 82 °F 84 °F 96 °F (1991)
Min Temperature 60 °F 65 °F 55 °F (1992)
Degree Days  
Heating Degree Days 0    
Month to date heating degree days 0  
Since 1 June heating degree days 0  
Since 1 July heating degree days 0  
Cooling Degree Days 6    
Month to date cooling degree days 13  
Year to date cooling degree days 525  
Since 1 June cooling degree days 445  
Growing Degree Days 20 (Base 50)    
Moisture  
Dew Point 61 °F    
Average Humidity 71    
Maximum Humidity 100    
Minimum Humidity 42    
Precipitation  
Precipitation 0.00 in 0.15 in 1.78 in (1958)
Month to date precipitation 0.00 0.29  
Year to date precipitation 43.26 34.42  
Sea Level Pressure  
Sea Level Pressure 30.05 in    
Wind  
Wind Speed 1 mph (NNE)    
Max Wind Speed 9 mph    
Max Gust Speed 13 mph    
Visibility 6 miles    
Events      
T = Trace of Precipitation, MM = Missing Value Source: NWS Daily Summary

Daily Weather History Graph

Daily Weather History Graph

Search for Another Location

Airport or City:

Astronomy

Aug. 02, 2013 Rise Set
Actual Time 5:48 AM CDT 7:43 PM CDT
Civil Twilight 5:20 AM CDT 8:11 PM CDT
Nautical Twilight 4:46 AM CDT 8:45 PM CDT
Astronomical Twilight 4:09 AM CDT 9:22 PM CDT
Moon 2:10 AM CDT (8/2) 4:39 PM CDT (8/2)
Length of Visible Light 14h 51m
Length of Day
13h 55m
Waning Crescent, 15% of the Moon is Illuminated
Aug 2
Waning Crescent
Aug 6
New
Aug 14
First Quarter
Aug 20
Full
Aug 28
Last Quarter

Hourly Weather History & Observations

Time (CDT) Temp. Heat Index Dew Point Humidity Pressure Visibility Wind Dir Wind Speed Gust Speed Precip Events Conditions
12:53 AM 63.0 °F - 61.0 °F 93% 30.02 in 5.0 mi Calm Calm - N/A   Clear
1:53 AM 62.1 °F - 60.1 °F 93% 30.01 in 4.0 mi Calm Calm - N/A   Clear
2:07 AM 62.6 °F - 60.8 °F 94% 30.06 in 2.0 mi Calm Calm - N/A   Clear
2:16 AM 62.6 °F - 60.8 °F 94% 30.06 in 5.0 mi Calm Calm - N/A   Clear
2:53 AM 61.0 °F - 60.1 °F 97% 30.01 in 3.0 mi Calm Calm - N/A   Clear
3:05 AM 60.8 °F - 60.8 °F 100% 30.06 in 1.8 mi Calm Calm - N/A   Clear
3:16 AM 60.8 °F - 60.8 °F 100% 30.06 in 3.0 mi Calm Calm - N/A   Clear
3:53 AM 60.1 °F - 59.0 °F 96% 30.00 in 2.5 mi Calm Calm - N/A   Clear
4:35 AM 60.8 °F - 59.0 °F 94% 30.07 in 5.0 mi Calm Calm - N/A   Clear
4:46 AM 60.8 °F - 59.0 °F 94% 30.06 in 1.5 mi Calm Calm - N/A   Clear
4:53 AM 60.1 °F - 59.0 °F 96% 30.02 in 1.2 mi Calm Calm - N/A   Clear
4:56 AM 60.8 °F - 59.0 °F 94% 30.07 in 3.0 mi Calm Calm - N/A   Clear
5:44 AM 60.8 °F - 59.0 °F 94% 30.09 in 2.5 mi Calm Calm - 0.01 in   Clear
5:51 AM 60.8 °F - 59.0 °F 94% 30.08 in 5.0 mi Calm Calm - 0.01 in   Clear
5:53 AM 60.1 °F - 59.0 °F 96% 30.03 in 5.0 mi Calm Calm - 0.01 in   Clear
6:14 AM 60.8 °F - 59.0 °F 94% 30.08 in 2.5 mi Calm Calm - N/A   Clear
6:28 AM 60.8 °F - 59.0 °F 94% 30.08 in 5.0 mi Calm Calm - N/A   Clear
6:53 AM 63.0 °F - 62.1 °F 97% 30.03 in 3.0 mi Calm Calm - N/A   Clear
7:53 AM 68.0 °F - 63.0 °F 84% 30.05 in 5.0 mi NNE 3.5 mph - N/A   Haze
8:53 AM 72.0 °F - 62.1 °F 71% 30.05 in 10.0 mi ENE 4.6 mph - N/A   Clear
9:53 AM 73.9 °F - 59.0 °F 59% 30.06 in 10.0 mi NE 9.2 mph - N/A   Clear
10:53 AM 75.9 °F - 57.9 °F 54% 30.07 in 10.0 mi Calm Calm - N/A   Clear
11:53 AM 78.1 °F - 60.1 °F 54% 30.07 in 10.0 mi Calm Calm - N/A   Clear
12:53 PM 77.0 °F - 57.9 °F 52% 30.06 in 10.0 mi Calm Calm - N/A   Clear
1:53 PM 79.0 °F - 57.0 °F 47% 30.06 in 10.0 mi Calm Calm - N/A   Clear
2:53 PM 80.1 °F 80.2 °F 55.9 °F 43% 30.06 in 10.0 mi Variable 3.5 mph - N/A   Clear
3:53 PM 80.1 °F 80.7 °F 59.0 °F 48% 30.04 in 10.0 mi Calm Calm - N/A   Clear
4:53 PM 80.1 °F 80.7 °F 59.0 °F 48% 30.04 in 10.0 mi NW 3.5 mph - N/A   Clear
5:53 PM 75.9 °F - 63.0 °F 64% 30.04 in 10.0 mi West 3.5 mph - N/A   Clear
6:53 PM 75.9 °F - 64.9 °F 69% 30.03 in 10.0 mi Calm Calm - N/A   Clear
7:53 PM 70.0 °F - 66.0 °F 87% 30.03 in 10.0 mi Calm Calm - N/A   Clear
8:53 PM 69.1 °F - 66.0 °F 90% 30.04 in 10.0 mi Calm Calm - N/A   Clear
9:53 PM 68.0 °F - 66.0 °F 93% 30.05 in 9.0 mi Calm Calm - N/A   Clear
10:53 PM 66.9 °F - 64.9 °F 93% 30.04 in 7.0 mi Calm Calm - N/A   Clear
11:53 PM 66.9 °F - 64.9 °F 93% 30.04 in 8.0 mi Calm Calm - N/A   Clear